Regional Weather Roundup
Issued by NWS

Home | Current Version | Previous Version | Graphics & Text | Print | Product List | Glossary On
Versions: 1 2 3 4 5 6 7 8 9 10 11 12 13 14 15 16 17 18 19 20 21 22 23 24 25 26 27 28 29 30 31 32 33 34 35 36 37 38 39 40 41 42 43 44 45 46 47 48 49 50
000
ASUS43 KLOT 270758
RWRIL

ILLINOIS REGIONAL WEATHER ROUNDUP
NATIONAL WEATHER SERVICE CHICAGO/ROMEOVILLE IL
200 AM CST FRI FEB 27 2015

NOTE: "FAIR" INDICATES FEW OR NO CLOUDS BELOW 12,000 FEET WITH NO
SIGNIFICANT WEATHER AND/OR OBSTRUCTIONS TO VISIBILITY.

* THESE STATIONS ARE NOT UNDER NWS QUALITY CONTROL. THEY ALSO MAY NOT
  REPORT WEATHER SUCH AS PRECIPITATION OR FOG.

ILZ001-002-007-009-015-016-024-270900-
NORTHWEST ILLINOIS

CITY           SKY/WX    TMP DP  RH WIND       PRES   REMARKS
MOLINE         FAIR      -7 -13  75 W7        30.54R WCI -21
$$

ILZ003-004-008-010-011-017-018-270900-
NORTH CENTRAL ILLINOIS

CITY           SKY/WX    TMP DP  RH WIND       PRES   REMARKS
ROCKFORD       NOT AVBL
$$

ILZ005-006-012>014-019>023-270900-
NORTHEAST ILLINOIS

CITY           SKY/WX    TMP DP  RH WIND       PRES   REMARKS
CHICAGO-OHARE  CLEAR      0  -8  69 NW8       30.44R WCI -14
CHICAGO-MIDWAY PTCLDY     6  -4  63 NW6       30.45R WCI  -4
AURORA         CLEAR    -12 -19  71 W8        30.47R WCI -29
WAUKEGAN       NOT AVBL
DUPAGE AIRPORT FAIR      -3 -10  72 CALM      30.44R
WHEELING       CLEAR      2  -7  66 NW8       30.46R WCI -12
NORTHERLY ISL    N/A     11  -2  56 NW10        N/A  WCI  -2
$$

LMZ740>746-270900-
SOUTHERN LAKE MICHIGAN

STATION/POSITION SKY/WX   TEMP    WIND        PRES    VSBY  WAVE
                          AIR SEA DIR/SP/G                  HT/PER
                          (F)     (DEG/KT/KT) (MB)    (MI)  (FT/S)
WAUKEGAN HARBOR             4     300/  5/ 10   N/A
HARRISON CRIB              11     320/ 15/ 18   N/A
BURNHAM HARBOR             11     310/ 10/ 12   N/A
CALUMET HARBOR              9     280/  8/ 10 1029.1R
MICHIGAN CITY              11      50/  6/  7   N/A
$$

ILZ025>027-034>036-040-047-049-050-058-095>099-270900-
WEST-CENTRAL ILLINOIS

CITY           SKY/WX    TMP DP  RH WIND       PRES   REMARKS
$$

ILZ028>032-037-038-041>044-048-051>054-059>061-270900-
CENTRAL ILLINOIS

CITY           SKY/WX    TMP DP  RH WIND       PRES   REMARKS
PEORIA         NOT AVBL
SPRINGFIELD    CLEAR      0  -7  72 W8        30.54R WCI -14
TAYLORVILLE    NOT AVBL
$$

ILZ033-039-045-046-055>057-062-063-270900-
EAST-CENTRAL ILLINOIS

CITY           SKY/WX    TMP DP  RH WIND       PRES   REMARKS
CHAMPAIGN      PTCLDY     5  -2  72 NW8       30.47R WCI  -8
MATTOON        CLOUDY    11   3  70 NW9       30.48R WCI  -2
$$

ILZ079-100>102-270900-
SOUTHWEST ILLINOIS

CITY           SKY/WX    TMP DP  RH WIND       PRES   REMARKS
CAHOKIA*       CLEAR      9  -1  64 NW14      30.58R WCI  -7
$$

ILZ064>066-069>071-074>076-080>082-084>086-088>090-092>094-270900-
SOUTH-CENTRAL ILLINOIS

CITY           SKY/WX    TMP DP  RH WIND       PRES   REMARKS
CARBONDALE     FLURRIES  12   4  70 NW13      30.53R WCI  -3
$$

ILZ067-068-072-073-078-083-087-091-270900-
SOUTHEAST ILLINOIS

CITY           SKY/WX    TMP DP  RH WIND       PRES   REMARKS
LAWRENCEVILLE  CLOUDY    12   3  67 NW12      30.50R WCI  -2
$$

ABBREVIATIONS USED IN REMARKS
   TC - TEMPERATURE IN CELSIUS
  WCI - WIND CHILL INDEX
   HX - HEAT INDEX
  VSB - VISIBILITY
$$




USA.gov is the U.S. government's official web portal to all federal, state and local government web resources and services.